Location: Northeast Philadelphia Airport
(40.0833°N, 75.0000°W)
Time: 18:28:03
(UTC-04:00)

ISS - Visible Passes

Search period start: 21 March 2019 00:00
Search period end: 31 March 2019 00:00
Orbit: 406 x 411 km, 51.6° (Epoch: 22 March)

Date Brightness Start Highest point End Pass type
(mag) Time Alt. Az. Time Alt. Az. Time Alt. Az.
21 Mar -3.0 20:02:13 10° SSW 20:05:12 32° SE 20:07:15 17° E visible
21 Mar -1.0 21:38:48 10° W 21:40:04 19° WNW 21:40:04 19° WNW visible
22 Mar -3.0 20:47:26 10° WSW 20:50:39 49° NNW 20:51:53 30° NNE visible
23 Mar -3.8 19:56:17 10° SW 19:59:35 89° SSE 20:02:53 10° NE visible
23 Mar -1.1 21:34:09 10° WNW 21:36:16 18° NNW 21:36:16 18° NNW visible
24 Mar -1.7 20:42:29 10° W 20:45:16 25° NNW 20:47:42 12° NNE visible
25 Mar -2.4 19:50:58 10° W 19:54:04 38° NNW 19:57:12 10° NE visible
25 Mar -0.9 21:29:42 10° NW 21:31:21 13° N 21:31:44 13° N visible
26 Mar -1.1 20:37:51 10° WNW 20:40:00 16° NNW 20:42:09 10° NNE visible
27 Mar -1.5 19:46:05 10° WNW 19:48:41 21° NNW 19:51:17 10° NNE visible
27 Mar -0.9 21:25:07 10° NNW 21:26:13 11° N 21:26:41 11° N visible
28 Mar -1.0 20:33:21 10° NW 20:34:47 12° N 20:36:13 10° NNE visible
29 Mar -1.0 21:19:44 10° NNW 21:21:02 12° N 21:21:22 12° NNE visible
30 Mar -1.0 20:28:31 10° NNW 20:29:35 11° N 20:30:40 10° NNE visible
30 Mar -0.5 22:04:41 10° NNW 22:05:00 12° NNW 22:05:00 12° NNW visible
